DECAYED

STARLINK-1917, 46767 (Decayed)

Orbit data source: Space-Track

STARLINK-1917, 46767 was a payload satellite owned by SpaceX/Seattle (US) in LEO that was launched on Sat, 24 Oct 2020 UTC via an FALCON 9 launch vehicle from the Air Force Eastern Test Range (AFETR). Payload-class satellites include a variety of spacecraft equipped with specific instruments for various scientific and technological missions. These include communications satellites like Starlink; space stations such as the ISS; scientific satellites like the Hubble; Earth observation satellites from companies like Planet Labs, Umbra, and HawkEye 360; GPS; miniature CubeSats for education and research; and military/defense satellites.

Not visible in the next 10 days
Identifier
46767, 2020-074AE
Orbit
Decayed
Last TLE update
3 months ago
Origin
Manufacturer
SpaceX/Seattle
Mission
Decayed Commercial Communications
Bus & Motor
STARLINK, Unknown motor
Mass
260 kg wet, ~248 kg dry
Launch date (UTC)
2020-10-24 (5 years ago)
Launch vehicle
FALCON 9
Launch site
Air Force Eastern Test Range (AFETR)
Object type
Payload
Rocket body
Debris
Shape & HBR
Box + 1 Pan, 8.86 m
Radar Cross Section
13.562 m², Large (>1 m²)

Expand to show TLE details & history

TLE from 3 months ago
0 STARLINK-1917
1 46767U 20074AE  25051.87229515  .15867922  12508-4  53770-3 0  9990
2 46767  53.0359 210.6534 0006083 285.6716 192.1437 16.44255836239487
Epoch: 2025-02-20T20:56Z
Definitive object data (Epoch: 2025-02-20T20:56:06.3Z)
Latitude
45.12201°
Longitude
-123.12913°
Altitude
163.053 km
Speed
7.812 km/s
True Right ascension
22h 47m 45s
True Declination
44° 56' 04"
Sunlit
Object was in daylight at TLE epoch
Visualization observer readout
Visualization observer readout
Orbital elements
Apogee altitude
158.769 km
Perigee altitude
150.821 km
Semi-major axis
6,532.932 km
Eccentricity
0.0006083
Inclination
53.0359°
RAAN
210.6534°
Arg. of periapsis
285.6716°
True anomaly
192.12905°
Mean anomaly
192.1437°
Eccentric anomaly
192.13637°
Mean motion
4.11037 °/min
BSTAR
0.0005377
Orbital period
87.58 mins
Loading maneuver chart data...
Loading SW <> Apogee altitude chart data...

STARLINK-1917 Visibility forecast

Observer location: undefined°, undefined°

This satellite is decayed
Span
Click to sort rows by Start time (UTC) header in descending order
Start Az.
Max El. time (UTC)
Max El. Az.
Max El.
End time (UTC)
End Az.
|